DW2458 Weather Reports


time (UTC)temp
C
wind
direction
speed
KPH
gust
KPH
rain 1hr
cm
rain 24hr
cm
rain mn
cm
humidity
%
barometer
mb
20260503193034 17 15 6.4 17.7 0.00 0.00 0.00 60 1011.1
20260503191519 17 15 0.0 4.8 0.00 0.00 0.00 62 1011.2
20260503190025 17 139 0.0 3.2 0.00 0.00 0.00 66 1011.3
20260503184517 16 280 0.0 4.8 0.00 0.00 0.00 65 1011.4
20260503183111 16 224 0.0 6.4 0.00 0.00 0.00 66 1011.5
20260503181510 16 74 0.0 1.6 0.00 0.00 0.00 70 1011.5
20260503180012 15 187 3.2 12.9 0.00 0.00 0.00 68 1011.5
20260503174509 15 223 8.0 14.5 0.00 0.00 0.00 70 1011.5
20260503173016 15 228 8.0 14.5 0.00 0.00 0.00 72 1011.5
20260503171506 16 294 11.3 25.7 0.00 0.00 0.00 69 1011.4
20260503081508 13 331 3.2 8.0 0.00 0.00 0.00 77 1010.1
20260503071558 13 20 3.2 8.0 0.00 0.00 0.00 77 1010.4
20260503054554 13 327 3.2 16.1 0.00 0.00 0.00 75 1010.7
20260503053054 13 331 4.8 12.9 0.00 0.00 0.00 75 1010.8
20260503051553 13 13 3.2 14.5 0.00 0.00 0.00 75 1010.9
20260503050051 13 24 4.8 14.5 0.00 0.00 0.00 75 1010.8
20260503044554 13 324 3.2 17.7 0.00 0.00 0.00 75 1010.6
20260503043051 13 327 3.2 14.5 0.00 0.00 0.00 75 1010.5
20260503041549 13 350 4.8 12.9 0.00 0.00 0.00 75 1010.6
20260503040048 13 9 8.0 17.7 0.00 0.00 0.00 75 1010.3
20260503034600 13 340 9.7 17.7 0.00 0.00 0.00 74 1010.1
20260503033053 14 315 6.4 17.7 0.00 0.00 0.00 74 1009.9
20260503031548 14 22 11.3 19.3 0.00 0.00 0.00 73 1009.7
20260503030044 14 330 9.7 20.9 0.00 0.00 0.00 73 1009.7
20260503024545 15 324 11.3 22.5 0.00 0.00 0.00 73 1009.5
20260503023039 15 343 12.9 20.9 0.00 0.00 0.00 73 1009.2
20260503021538 15 331 11.3 20.9 0.00 0.00 0.00 72 1009.1
20260503020037 15 325 12.9 19.3 0.00 0.00 0.00 71 1009.2
20260503014541 16 34 9.7 22.5 0.00 0.00 0.00 71 1009.2
20260503013035 16 24 6.4 22.5 0.00 0.00 0.00 72 1009.3
20260503011533 16 33 11.3 24.1 0.00 0.00 0.00 71 1009.3
20260503010036 17 59 8.0 20.9 0.00 0.00 0.00 71 1009.3
20260503004533 17 36 9.7 22.5 0.00 0.00 0.00 69 1009.2
20260503003047 17 49 12.9 22.5 0.00 0.00 0.00 69 1009.3
20260503001548 17 34 9.7 19.3 0.00 0.00 0.00 68 1009.3
20260503000032 18 23 14.5 27.4 0.00 0.00 0.00 64 1009.3
20260502234534 18 330 9.7 27.4 0.00 0.00 0.00 65 1009.4
20260502233028 18 9 16.1 27.4 0.00 0.00 0.00 65 1009.5
20260502231525 18 360 12.9 24.1 0.00 0.00 0.00 64 1009.7
20260502230032 20 344 12.9 24.1 0.00 0.00 0.00 62 1009.7
20260502224521 20 22 11.3 19.3 0.00 0.00 0.00 62 1010.0
20260502223020 20 308 12.9 20.9 0.00 0.00 0.00 61 1010.2
20260502221521 20 321 11.3 19.3 0.00 0.00 0.00 61 1010.6
20260502220017 21 360 9.7 17.7 0.00 0.00 0.00 64 1010.7
20260502214516 21 5 8.0 20.9 0.00 0.00 0.00 62 1010.9
20260502213021 21 315 9.7 19.3 0.00 0.00 0.00 63 1010.8
20260502211518 21 293 8.0 17.7 0.00 0.00 0.00 63 1011.0
20260502210013 20 349 9.7 17.7 0.00 0.00 0.00 65 1011.1
20260502204513 19 300 6.4 19.3 0.00 0.00 0.00 65 1011.3
20260502203011 20 328 8.0 17.7 0.00 0.00 0.00 66 1011.4
20260502201510 19 324 3.2 14.5 0.00 0.00 0.00 70 1011.6
20260502200011 19 309 6.4 12.9 0.00 0.00 0.00 67 1011.8
20260502194507 18 273 3.2 6.4 0.00 0.00 0.00 68 1011.9